DW3793 Weather Reports


Display with metric or nautical units.
time (UTC)temp
F
wind
direction
speed
MPH
gust
MPH
rain 1hr
in
rain 24hr
in
rain mn
in
humidity
%
barometer
mb
20260503040037 66 305 1.0 5.0 0.00 0.00 0.00 38 1014.1
20260503034533 64 269 1.0 3.0 0.00 0.00 0.00 41 1014.0
20260503033004 63 297 3.0 5.0 0.00 0.00 0.00 44 1013.8
20260503031503 63 290 3.0 5.0 0.00 0.00 0.00 46 1013.6
20260503030059 66 286 3.0 5.0 0.00 0.00 0.00 44 1013.5
20260503024604 71 259 2.0 7.0 0.00 0.00 0.00 31 1013.3
20260503023105 71 244 1.0 5.0 0.00 0.00 0.00 31 1013.3
20260503021606 71 173 4.0 11.0 0.00 0.00 0.00 32 1013.4
20260503020027 71 128 8.0 14.0 0.00 0.00 0.00 34 1013.4
20260503014526 74 171 6.0 12.0 0.00 0.00 0.00 34 1013.4
20260503013106 75 146 1.0 2.0 0.00 0.00 0.00 27 1013.4
20260503011604 75 149 1.0 4.0 0.00 0.00 0.00 28 1013.4
20260503010059 76 126 1.0 4.0 0.00 0.00 0.00 23 1013.4
20260503004553 78 126 0.0 2.0 0.00 0.00 0.00 22 1013.4
20260503003100 77 146 1.0 7.0 0.00 0.00 0.00 26 1013.4
20260503001552 77 128 3.0 7.0 0.00 0.00 0.00 22 1013.4
20260503000100 78 96 4.0 9.0 0.00 0.00 0.00 21 1013.4
20260502234547 77 93 2.0 7.0 0.00 0.00 0.00 23 1013.5
20260502233050 78 123 2.0 6.0 0.00 0.00 0.00 20 1013.6
20260502231546 79 40 2.0 5.0 0.00 0.00 0.00 19 1013.6
20260502230040 79 325 1.0 5.0 0.00 0.00 0.00 19 1013.8
20260502224534 76 90 2.0 9.0 0.00 0.00 0.00 23 1013.9
20260502223033 76 154 2.0 9.0 0.00 0.00 0.00 29 1014.0
20260502221529 75 154 5.0 11.0 0.00 0.00 0.00 35 1014.2
20260502220058 75 192 5.0 9.0 0.00 0.00 0.00 34 1014.4
20260502214556 75 175 2.0 5.0 0.00 0.00 0.00 29 1014.5
20260502213029 74 142 3.0 5.0 0.00 0.00 0.00 35 1014.7
20260502211523 74 148 4.0 8.0 0.00 0.00 0.00 37 1014.8
20260502210016 74 140 5.0 9.0 0.00 0.00 0.00 35 1014.9
20260502204522 73 148 4.0 9.0 0.00 0.00 0.00 38 1015.1
20260502203016 73 140 1.0 8.0 0.00 0.00 0.00 35 1015.2
20260502201509 72 138 2.0 5.0 0.00 0.00 0.00 42 1015.4
20260502200004 72 136 1.0 6.0 0.00 0.00 0.00 42 1015.6
20260502194501 71 163 0.0 4.0 0.00 0.00 0.00 44 1015.7
20260502193100 69 144 2.0 7.0 0.00 0.00 0.00 46 1015.9
20260502191603 70 186 0.0 5.0 0.00 0.00 0.00 43 1016.0
20260502190052 67 147 2.0 6.0 0.00 0.00 0.00 45 1016.2
20260502184548 67 107 2.0 7.0 0.00 0.00 0.00 45 1016.4
20260502183047 65 138 3.0 7.0 0.00 0.00 0.00 46 1016.5
20260502181550 64 153 2.0 7.0 0.00 0.00 0.00 53 1016.7
20260502163102 58 132 1.0 4.0 0.00 0.00 0.00 55 1017.0
20260502161555 58 143 0.0 4.0 0.00 0.00 0.00 58 1017.1
20260502151548 54 87 0.0 2.0 0.00 0.00 0.00 62 1017.2
20260502123031 43 300 1.0 3.0 0.00 0.00 0.00 72 1016.7
20260502121521 44 292 1.0 3.0 0.00 0.00 0.00 72 1016.8
20260502114518 45 275 0.0 2.0 0.00 0.00 0.00 70 1016.7
20260502113018 45 297 1.0 3.0 0.00 0.00 0.00 72 1016.6
20260502111514 45 289 1.0 4.0 0.00 0.00 0.00 71 1016.6
20260502110012 46 290 1.0 3.0 0.00 0.00 0.00 69 1016.6
20260502104538 46 298 2.0 3.0 0.00 0.00 0.00 70 1016.6
20260502103005 47 301 0.0 3.0 0.00 0.00 0.00 69 1016.5
20260502101700 48 273 0.0 3.0 0.00 0.00 0.00 67 1016.6
20260502091522 51 304 0.0 2.0 0.00 0.00 0.00 60 1016.7
20260502070041 52 251 1.0 3.0 0.00 0.00 0.00 58 1016.8
20260502064536 53 311 1.0 2.0 0.00 0.00 0.00 53 1016.6
20260502063046 54 263 0.0 2.0 0.00 0.00 0.00 51 1016.5
20260502061528 54 266 0.0 0.0 0.00 0.00 0.00 51 1016.4
20260502060028 54 303 0.0 2.0 0.00 0.00 0.00 50 1016.4
20260502054527 55 312 0.0 2.0 0.00 0.00 0.00 51 1016.4
20260502053027 55 291 0.0 2.0 0.00 0.00 0.00 52 1016.5
20260502051530 56 286 0.0 3.0 0.00 0.00 0.00 51 1016.6
20260502050026 57 210 0.0 4.0 0.00 0.00 0.00 51 1016.6
20260502044524 59 319 1.0 3.0 0.00 0.00 0.00 45 1016.5
20260502043023 61 240 2.0 7.0 0.00 0.00 0.00 40 1016.5
20260502041520 62 269 2.0 8.0 0.00 0.00 0.00 41 1016.3